Flag for Colombia Weather past 2 weeks in Cúcuta, Colombia

Now
70 °F

Partly cloudy.


Feels Like: 70 °F
Forecast: 72 / 91 °F
Wind: No wind

Location: Bucaramanga / Palonegro

Current Time: Mar 30, 2015 at 2:29:03 AM

Latest Report: Mar 30, 2015 at 12:00 AM


Visibility: 3 mi

Pressure: 30.10 "Hg

Humidity: 94%

Dew point: 68 °F

Location of CúcutaLocation

Historic Weather in Cúcuta — Graph

°F

Cúcuta temperature yesterday

Maximum temperature yesterday: 77 °F (at 9:00 AM)
Minimum temperature yesterday: 66 °F (at 5:30 AM)
Average temperature yesterday: 72 °F

Past Weeks' High & Low Weather Summary

 TemperatureHumidityPressure
High81 °F (Mar 15, 1:00 PM)100% (Mar 17, 6:00 AM)30.14 "Hg (Mar 17, 6:00 AM)
Low64 °F (Mar 19, 7:00 AM)61% (Mar 23, 4:00 PM)29.89 "Hg (Mar 15, 4:00 PM)
Average72 °F84%30.03 "Hg
* Reported Mar 15 6:00 AM — Midnight between Mar 29 and Mar 30, Cúcuta, Weather by CustomWeather, © 2015

Note: Actual official high and low records may vary slightly from our data, if they occured in-between our weather recording intervals... More about our weather records

Advertising

Cúcuta weather history for previous 24 hours

 ConditionsComfort  
Time TempWeatherWind HumidityBarometerVisibility
12:00 AM
Mon, Mar 30
70 °FPartly cloudy.No wind94%30.10 "Hg3 mi
11:00 PM
Sun, Mar 29
70 °FPartly cloudy.No wind94%30.10 "Hg3 mi
10:00 PM70 °FPartly cloudy.No wind94%30.10 "Hg5 mi
9:00 PM70 °FPartly cloudy.No wind94%30.08 "Hg5 mi
8:00 PM70 °FPartly cloudy.6 mph94%30.07 "HgN/A
7:00 PM72 °FPartly cloudy.3 mph88%30.04 "HgN/A
6:00 PM72 °FBroken clouds.5 mph88%30.02 "HgN/A
5:00 PM73 °FScattered clouds.9 mph78%30.01 "HgN/A
4:00 PM73 °FScattered clouds.2 mph78%29.99 "HgN/A
3:00 PM73 °FScattered clouds.2 mph83%30.00 "HgN/A
2:00 PM75 °FBroken clouds.8 mph74%30.03 "HgN/A
1:00 PM73 °FBroken clouds.5 mph83%30.07 "HgN/A
12:00 PM73 °FBroken clouds.3 mph78%30.09 "HgN/A
11:00 AM72 °FBroken clouds.3 mph83%30.10 "HgN/A
10:00 AM75 °FScattered clouds.2 mph74%30.11 "HgN/A
9:00 AM77 °FScattered clouds.5 mph69%30.12 "HgN/A
8:00 AM70 °FScattered clouds.5 mph83%30.10 "HgN/A
7:00 AM68 °FBroken clouds.2 mph88%30.10 "HgN/A
6:00 AM66 °FBroken clouds.No wind100%30.08 "HgN/A
5:30 AM66 °FPassing clouds.No wind100%30.07 "HgN/A
Weather by CustomWeather, © 2015

See weather overviewHow to use our weather pages